Regional Weather Roundup
Issued by NWS

Home | Current Version | Previous Version | Graphics & Text | Print | Product List | Glossary On
Versions: 1 2 3 4 5 6 7 8 9 10 11 12 13 14 15 16 17 18 19 20 21 22 23 24 25 26 27 28 29 30 31 32 33 34 35 36 37 38 39 40 41 42 43 44 45 46 47 48 49 50
000
ASUS44 KMEG 232110
RWRTN
TENNESSEE HOURLY STATE WEATHER ROUNDUP
NATIONAL WEATHER SERVICE MEMPHIS TN
400 PM CDT MON MAY 23 2016

TNZ002-004-019-021-049-052-054-088>092-232200-
WEST TENNESSEE

CITY           SKY/WX    TMP DP  RH WIND       PRES   REMARKS
MEMPHIS INTL   PTSUNNY   85  52  32 VRB5      29.96F
NWS MEMPHIS      N/A     84 N/A N/A MISG        N/A
JACKSON        SUNNY     82  52  35 VRB3      29.97F
DYERSBURG      MOSUNNY   82  52  34 SW8       29.96S
UNION CITY     SUNNY     84  52  32 SW6       29.95F
PARIS          MOSUNNY   82  50  32 W6        29.96F
LEXINGTON      MOSUNNY   84  48  28 SW5       29.96F
$$

TNZ008-025-027-028-033-062-065-066-232200-
NORTH MIDDLE TENNESSEE

CITY           SKY/WX    TMP DP  RH WIND       PRES   REMARKS
NASHVILLE      MOSUNNY   84  49  29 VRB6      29.96F
CLARKSVILLE    SUNNY     82  52  35 N9        29.96F
SMYRNA         SUNNY     84  45  25 N9        29.97F
COOKEVILLE     SUNNY     81  48  32 N6        29.98F
CROSSVILLE     MOSUNNY   76  45  33 MISG      30.01F
$$

TNZ061-075-076-078-094-096-097-232200-
SOUTH MIDDLE TENNESSEE

CITY           SKY/WX    TMP DP  RH WIND       PRES   REMARKS
FAYETTEVILLE   MOSUNNY   82  48  30 NW8       29.97F
TULLAHOMA      MOSUNNY   81  46  30 N7        29.98F
WINCHESTER     SUNNY     81  45  28 VRB6      29.97F
MCMINNVILLE    SUNNY     81  46  30 VRB5      29.98F
COLUMBIA       SUNNY     82  50  32 N3        29.95F
SHELBYVILLE    SUNNY     84  54  34 N9        29.97F
$$

TNZ017-018-042-046-047-232200-
NORTHEAST TENNESSEE

CITY           SKY/WX    TMP DP  RH WIND       PRES   REMARKS
TRI CITIES     PTSUNNY   70  46  42 CALM      30.02F
$$

TNZ012-013-036-069-073-074-232200-
CENTRAL EAST TENNESSEE

CITY           SKY/WX    TMP DP  RH WIND       PRES   REMARKS
KNOXVILLE      MOSUNNY   76  45  33 E9        29.98F
OAK RIDGE      SUNNY     78  42  27 VRB3      29.99F
GATLINBURG     SUNNY     73  46  38 VRB5      29.98F
$$

TNZ083-085-099-232200-
SOUTHEAST TENNESSEE

CITY           SKY/WX    TMP DP  RH WIND       PRES   REMARKS
CHATTANOOGA    MOSUNNY   82  47  29 W3        29.95F
$$

SKY/WX REPORTED AS FAIR MEANS FEW OR NO CLOUDS BELOW
12 THOUSAND FEET.




USA.gov is the U.S. government's official web portal to all federal, state and local government web resources and services.